Wind_Speed
37 37 37 37 37 37 37 37 37 37 38 38 38 39 39 40 41 42 43 44 46 47 47 48 48 49 49 50 52 51 50 50 49 47 46 45 46 47 48 50 51 53 54 56 57 54 51 52 53 52 52 52 53 54 55 56 57 59 60 61 63 64 67 70 73 75 76 76 75 75 74 70 63 54 46 44 44 45 45 45 46 49 52 55 57
39 39 39 39 39 39 39 39 39 39 40 40 41 41 41 42 43 44 45 46 48 49 49 49 50 50 51 52 53 53 52 51 50 49 48 47 48 49 50 51 53 54 56 58 57 54 52 53 55 55 55 55 55 56 57 58 59 60 62 63 64 66 68 71 74 76 77 76 74 72 67 61 54 50 47 47 49 49 49 49 50 53 56 59 62
41 41 41 41 42 42 41 41 41 42 42 43 43 43 43 44 45 45 47 48 50 50 50 51 51 51 52 54 55 54 53 52 51 51 50 49 49 50 51 53 54 56 57 58 58 55 54 56 58 58 58 58 59 59 60 60 61 62 63 65 67 69 71 72 74 74 74 74 71 65 58 52 49 50 51 52 53 53 53 52 52 54 57 61 65
43 43 43 44 44 44 44 44 44 44 45 45 45 45 45 45 46 47 48 50 51 52 52 53 53 53 54 55 56 56 54 54 53 52 51 50 51 52 53 54 56 57 58 59 59 57 56 58 60 60 60 60 61 61 62 62 62 63 65 66 68 69 70 70 71 70 67 65 62 58 52 49 50 52 54 54 56 56 56 56 58 60 64 68 72
45 45 46 46 46 46 46 46 47 47 47 48 48 48 47 47 48 48 49 51 53 54 54 55 56 56 55 56 58 57 56 55 54 53 53 52 53 54 55 56 57 58 59 60 59 57 57 60 60 60 60 61 62 62 61 61 62 64 65 66 67 67 67 67 66 63 58 54 54 54 51 49 51 53 54 56 59 62 64 66 68 71 74 77 79
47 48 48 49 49 49 49 49 49 49 50 50 50 50 49 49 51 51 51 51 54 56 57 57 58 58 57 58 58 59 57 55 54 54 53 53 54 55 56 57 58 59 61 61 58 55 58 61 60 59 61 61 61 61 61 62 64 66 66 67 67 65 63 63 62 59 55 53 55 55 52 50 51 54 56 59 63 67 70 72 74 76 78 80 82
50 50 50 51 51 51 51 52 52 52 52 52 53 53 52 52 53 54 54 53 55 57 58 59 59 60 60 59 60 60 58 56 56 54 54 55 55 55 57 59 60 61 62 60 56 56 61 62 60 60 62 62 61 61 61 63 66 68 67 67 66 63 62 62 60 57 56 58 60 58 54 53 56 59 63 65 67 70 72 74 76 79 81 82 83
52 52 53 53 53 53 53 54 54 54 54 55 55 55 54 54 55 56 56 56 56 57 58 60 61 62 62 61 61 61 60 58 57 56 56 56 55 56 59 61 62 62 62 59 57 60 62 61 61 62 61 60 61 62 63 65 68 68 67 65 64 62 61 59 58 58 59 61 62 58 56 59 63 67 70 72 74 76 78 79 80 81 82 81 81
55 55 55 55 55 55 55 56 56 56 57 57 57 57 57 57 56 57 58 59 59 59 59 60 62 63 64 63 62 61 60 59 58 57 56 53 53 58 62 63 64 63 62 61 61 62 61 61 63 62 58 59 63 64 64 65 65 64 62 61 61 61 60 60 62 65 65 63 61 61 64 68 72 73 75 76 77 77 78 78 77 77 76 76 76
57 58 58 57 57 57 57 58 58 58 59 59 60 60 59 59 59 59 60 61 61 61 60 61 62 63 65 64 63 61 61 60 59 57 54 51 55 61 64 65 65 63 63 64 64 63 62 63 62 56 54 60 65 65 64 62 59 58 57 59 61 63 64 65 69 72 70 66 66 70 73 75 76 76 76 75 74 73 72 71 70 70 70 70 71
60 61 60 60 59 59 59 59 60 60 61 61 62 62 62 61 61 61 61 62 62 62 62 61 61 62 64 65 65 63 62 61 60 58 55 55 59 63 65 66 65 65 66 67 65 65 65 64 60 53 54 62 65 64 62 58 56 57 59 62 65 68 68 69 73 77 74 71 73 78 79 78 76 75 73 71 70 68 66 66 66 66 67 68 69
63 62 61 61 61 61 61 61 61 62 63 63 64 64 64 64 64 64 64 64 64 64 63 62 62 62 63 65 65 64 63 62 62 60 60 60 63 64 65 66 66 67 68 68 67 67 66 64 61 56 56 61 63 63 61 58 58 61 62 64 68 70 72 74 78 80 76 73 77 81 80 78 76 73 70 67 66 65 64 65 66 67 68 69 70
64 62 61 62 63 63 62 62 63 64 64 65 65 65 66 66 66 66 66 66 66 65 65 64 64 63 63 63 64 65 64 64 63 62 62 63 64 65 66 67 67 68 69 68 67 66 64 62 61 60 61 63 64 66 65 64 62 61 60 64 70 74 77 80 81 79 76 76 80 82 81 78 74 70 67 65 64 64 66 67 69 70 70 71 73
66 64 63 64 64 64 64 65 65 66 66 67 67 67 68 69 69 68 68 68 68 67 67 67 66 65 64 63 64 64 65 65 65 64 64 65 66 66 68 68 69 70 70 69 67 66 63 62 64 66 66 67 69 68 68 68 65 62 64 71 76 79 80 80 79 78 78 80 81 82 80 77 71 67 65 64 65 66 67 69 71 72 73 74 75
68 67 66 65 65 65 66 67 67 67 68 68 69 69 70 71 71 70 70 70 70 70 69 69 68 67 66 65 64 65 65 66 66 65 66 67 67 68 69 70 71 71 71 70 68 65 63 64 69 70 68 70 72 70 69 70 69 70 74 77 79 80 79 79 79 79 81 82 82 81 78 74 69 66 66 66 67 68 69 71 73 73 74 75 76
70 67 66 66 66 67 67 68 69 69 69 70 71 72 72 73 73 73 72 72 72 72 71 70 69 68 67 67 66 66 66 67 67 67 67 68 69 69 70 71 71 71 71 70 66 63 64 68 71 71 71 71 72 72 74 75 75 76 79 79 79 80 80 80 81 81 82 83 82 79 74 70 68 68 68 69 70 71 71 73 75 75 75 75 76
71 68 67 67 67 67 68 69 70 71 71 72 73 74 75 75 75 75 74 74 73 73 73 72 70 69 69 69 68 67 67 68 69 69 69 69 70 71 71 71 72 72 71 68 65 64 67 70 71 73 73 72 73 77 77 76 78 80 81 81 80 81 82 83 83 83 83 83 81 76 72 69 69 70 71 73 73 73 74 75 76 76 75 73 72
71 71 71 70 68 68 69 70 71 73 74 74 75 77 77 78 77 77 76 75 74 74 73 72 72 71 70 70 70 69 69 69 70 71 72 72 72 72 72 72 72 73 71 68 66 67 70 72 74 75 74 73 78 79 74 73 82 86 83 82 83 83 84 84 84 83 83 81 78 74 72 72 73 73 75 76 76 77 77 77 78 77 74 71 69
74 74 74 72 70 70 71 72 73 74 76 77 78 80 80 80 80 79 77 76 75 73 72 71 72 72 71 71 71 71 70 71 72 73 74 74 73 73 73 72 72 73 72 70 70 72 73 75 76 76 75 79 85 85 79 81 87 87 84 84 85 84 85 85 84 83 82 79 75 73 72 74 75 76 78 79 80 80 80 80 79 77 73 69 67
76 76 75 73 72 73 73 73 74 75 77 79 80 82 82 83 82 80 79 77 74 72 71 71 71 72 72 72 72 72 72 72 73 74 75 75 75 74 73 73 73 73 73 72 74 76 77 78 78 79 82 86 88 87 85 86 87 85 85 86 85 84 85 85 84 83 80 77 75 74 74 75 76 78 79 80 81 81 81 81 80 77 73 69 67
78 77 76 74 75 75 75 75 75 76 78 80 81 83 84 84 83 81 79 76 73 71 71 71 72 72 72 72 73 73 73 73 74 75 75 76 76 75 75 75 75 75 75 75 78 80 82 82 83 86 88 89 87 85 84 85 85 85 85 84 84 85 85 84 83 80 77 76 76 76 77 78 78 79 80 80 81 81 81 80 77 74 71 68 65
79 77 76 76 77 77 77 77 77 77 79 80 80 82 82 81 80 80 78 75 73 73 73 73 73 72 72 72 73 74 74 74 74 75 76 77 78 77 77 77 78 78 78 79 81 83 84 85 87 89 89 88 86 85 84 85 85 84 84 84 84 84 83 81 79 77 76 77 77 78 79 79 80 80 81 81 82 81 80 79 75 72 69 65 61
79 78 77 78 78 78 78 77 77 78 78 78 79 80 78 74 74 76 77 76 76 74 73 73 73 73 73 73 74 74 74 74 74 75 77 78 79 79 79 80 80 80 81 82 83 84 84 86 87 87 87 86 85 84 83 83 84 84 84 84 83 81 79 78 76 76 77 78 79 79 80 81 81 81 81 81 81 81 79 77 73 70 66 63 59
80 80 80 80 79 79 78 78 77 77 77 77 77 76 72 70 72 75 76 77 77 76 74 74 74 74 74 74 73 73 73 74 75 76 78 79 79 80 81 81 81 82 82 83 84 84 84 85 86 86 85 85 84 83 82 83 83 83 82 81 79 78 77 77 77 77 79 79 80 80 81 81 81 81 81 81 81 80 77 74 71 67 63 60 57
82 82 82 81 80 79 78 78 77 77 76 76 75 72 70 70 73 77 78 78 77 76 75 75 75 75 75 74 73 73 74 74 76 78 79 80 81 82 83 83 83 83 83 84 84 84 84 84 85 85 84 83 82 82 82 82 82 81 79 78 78 78 78 78 78 79 80 80 81 81 81 82 81 81 81 80 79 77 74 71 68 64 59 56 54
84 84 84 83 81 80 79 79 78 77 77 77 76 74 72 73 76 78 79 78 77 76 76 76 76 76 75 74 74 74 74 76 77 79 80 81 83 84 85 85 84 84 84 84 84 83 83 83 82 82 82 82 82 81 81 80 79 78 78 78 79 79 79 80 80 81 82 81 81 81 82 81 81 80 80 79 77 74 71 68 64 60 56 54 51
84 84 84 83 81 80 79 79 79 79 78 78 77 76 74 75 77 78 78 77 76 76 77 77 76 76 76 75 75 75 76 77 78 80 82 84 85 86 86 86 86 86 86 85 84 83 83 83 82 82 82 82 80 79 79 79 79 79 79 80 80 81 82 81 81 82 82 81 80 81 81 80 80 79 77 76 73 70 67 64 60 56 53 51 49
83 83 82 81 80 80 80 79 79 79 79 78 76 75 75 75 76 77 77 77 76 77 78 78 77 77 77 77 77 77 78 79 80 82 85 86 87 87 87 87 87 86 86 85 85 85 85 85 83 82 82 80 79 79 79 79 79 79 80 81 81 82 83 83 83 83 82 81 80 80 80 79 78 76 74 71 69 66 63 59 55 53 51 49 47
83 82 81 80 80 79 79 78 78 77 77 76 75 74 75 75 75 76 77 77 77 78 79 78 77 78 79 79 78 78 79 80 82 85 87 89 89 89 89 88 87 87 86 86 86 86 86 85 83 82 81 80 80 80 80 80 80 81 82 82 83 83 84 85 85 84 83 82 81 80 79 77 75 72 70 67 64 61 58 54 51 49 48 46 44
82 81 80 80 79 77 76 77 77 76 76 75 74 73 73 74 74 76 77 78 78 78 77 77 78 79 80 80 80 80 80 81 84 87 89 91 91 91 90 89 88 87 87 87 86 85 84 83 83 82 82 82 82 82 82 82 82 82 83 83 83 84 84 85 86 86 84 83 81 79 76 73 71 68 66 63 60 57 53 50 48 46 45 44 42
80 79 79 78 77 76 75 76 76 75 75 75 74 73 73 73 75 76 76 75 75 74 74 76 78 79 80 81 82 82 82 84 87 90 92 92 92 91 90 88 88 88 88 87 86 84 83 83 83 83 83 83 84 84 83 83 82 82 82 82 82 82 82 83 84 84 82 80 78 75 72 69 67 65 62 59 56 53 50 48 45 43 42 42 41
79 78 78 77 76 75 74 74 74 74 74 74 73 73 72 72 72 72 71 71 71 72 74 76 77 78 81 83 84 85 85 87 89 92 93 94 92 91 89 88 88 89 88 87 86 85 85 85 85 85 85 85 85 85 85 84 83 82 82 82 82 82 81 80 80 79 76 74 71 69 67 65 63 60 58 55 52 50 47 45 42 41 40 39 39
77 76 75 73 71 70 70 72 73 74 73 73 72 71 70 68 68 67 67 68 70 72 74 76 77 79 81 83 85 87 88 90 92 94 94 93 91 90 89 89 89 88 87 86 87 87 87 88 88 87 86 85 85 86 85 85 84 83 83 83 83 82 80 78 77 75 71 68 66 64 62 61 58 55 53 50 48 46 44 42 40 39 38 38 37
73 71 69 69 69 70 71 72 72 72 71 70 68 66 64 63 64 66 68 70 72 73 75 77 79 81 82 84 86 88 90 92 94 94 92 91 90 89 89 89 89 88 87 87 88 89 90 90 90 89 87 85 85 86 86 85 85 85 84 84 82 80 77 75 72 70 67 64 62 60 57 55 52 50 47 45 43 42 41 40 39 37 36 36 35
66 65 65 68 69 69 69 70 70 68 67 65 63 61 61 62 65 67 70 72 74 75 77 79 81 83 85 87 88 90 92 93 93 92 91 91 90 90 90 90 89 88 87 88 90 91 91 92 91 89 87 86 86 85 85 86 86 85 84 82 79 76 72 69 66 65 63 60 58 55 52 49 47 45 43 41 40 40 39 37 36 35 35 35 34
64 65 66 67 67 66 66 66 66 65 64 61 60 60 62 64 66 69 71 73 76 78 80 82 84 86 88 89 90 92 92 92 91 91 92 91 90 91 91 91 90 89 89 89 91 92 93 94 92 90 88 87 86 86 85 85 84 82 80 77 73 69 66 63 61 59 57 55 52 49 46 44 42 41 39 39 38 38 37 36 35 34 33 33 33
65 65 65 65 64 63 62 62 60 59 59 60 60 62 64 65 68 71 73 75 78 81 83 85 87 88 89 90 92 92 92 91 91 92 92 91 91 92 92 92 91 90 89 90 91 93 95 96 93 90 89 88 87 86 84 82 79 76 73 70 67 63 61 58 56 54 51 49 47 45 43 41 40 38 38 37 37 36 35 34 34 33 32 32 31
60 60 60 59 58 57 57 57 57 57 59 62 64 66 68 70 72 74 76 78 81 83 85 86 88 89 90 93 94 93 91 92 93 92 92 92 93 94 94 93 92 90 89 90 92 94 95 95 93 90 88 88 86 84 81 77 74 70 67 64 61 59 56 54 52 49 46 44 43 42 41 39 38 37 36 36 35 34 34 33 32 31 30 30 29
53 54 54 54 54 54 55 56 58 60 62 65 67 69 71 73 75 77 79 81 83 84 86 88 89 91 94 96 95 93 92 92 93 93 93 94 96 96 96 94 92 90 89 90 92 94 95 93 89 87 87 85 82 79 75 71 67 63 60 58 55 54 52 50 48 47 44 42 40 39 38 37 36 35 34 34 34 33 32 31 30 29 28 28 27
47 49 52 53 55 55 57 59 61 64 66 68 70 72 73 75 77 79 81 82 84 86 87 89 91 94 97 96 94 92 92 93 95 95 96 97 98 97 95 93 91 91 90 91 93 94 93 89 86 85 83 80 76 72 68 64 60 57 55 53 51 49 47 46 45 44 43 41 39 38 36 35 34 33 32 32 32 31 30 29 28 27 26 26 25
50 53 56 57 58 60 61 63 64 66 68 69 71 72 74 76 79 81 82 84 86 87 89 92 95 97 97 94 93 93 94 97 98 98 97 97 97 95 93 92 91 91 91 92 93 93 90 87 84 81 77 73 69 65 62 58 55 53 51 49 47 45 44 43 42 41 40 39 38 36 35 33 32 31 31 30 30 29 28 28 26 25 24 24 24
55 58 60 60 61 63 65 66 68 69 71 72 74 76 78 80 82 84 85 87 89 91 94 97 98 97 95 93 93 94 97 100 99 97 97 98 97 95 93 92 92 92 92 92 91 89 87 85 82 77 71 66 62 58 56 53 51 50 48 46 44 43 42 41 40 39 39 37 36 35 33 32 30 29 29 28 28 27 27 26 25 24 23 22 22
61 63 64 65 66 68 71 73 74 76 77 79 81 82 83 84 85 87 89 91 94 97 98 97 95 94 94 94 95 98 100 101 99 97 98 98 96 93 92 93 93 93 92 91 89 86 84 81 77 71 66 61 57 54 52 50 48 46 44 43 41 40 40 39 38 37 37 36 35 33 31 30 29 28 27 27 26 26 26 25 24 22 21 21 21
65 67 68 70 71 73 75 77 79 79 80 82 84 85 87 88 89 91 94 96 97 97 95 93 93 94 94 96 98 101 102 101 100 100 100 97 92 90 91 92 93 92 91 89 87 84 81 76 70 65 60 57 54 52 50 47 45 42 41 40 39 39 39 38 38 36 36 35 34 32 30 29 27 26 26 25 24 24 24 24 23 21 20 20 20
68 69 71 73 74 76 77 80 81 82 84 85 87 89 91 92 93 95 96 96 94 92 92 92 94 95 97 99 102 103 102 102 102 100 97 93 89 89 90 91 91 90 88 85 83 81 76 70 64 60 56 53 51 49 47 44 42 39 38 38 38 38 37 38 38 36 35 34 33 31 29 28 26 25 25 24 23 23 23 23 22 20 19 19 19
72 73 76 77 79 81 82 84 86 87 88 89 90 91 92 94 95 96 94 92 92 92 93 93 94 97 100 102 103 103 103 103 101 97 93 90 89 88 89 89 88 86 84 81 78 74 69 63 58 55 52 50 48 46 43 41 39 38 37 37 37 36 36 36 37 36 35 34 33 31 29 27 25 24 24 23 22 22 22 22 21 20 18 17 17
76 78 79 80 82 83 84 85 86 87 88 90 91 92 94 95 94 93 91 90 91 93 94 95 97 100 103 103 103 104 104 102 98 93 90 89 89 88 87 86 84 82 79 77 72 67 62 57 54 51 48 46 44 43 41 39 38 37 37 36 36 36 35 34 35 35 35 33 32 31 29 27 26 24 23 22 22 21 21 21 20 19 17 16 16
79 80 81 82 83 84 85 87 89 90 91 92 93 93 92 91 90 89 89 91 93 96 98 100 102 103 103 103 104 105 103 99 94 91 90 89 88 86 84 82 80 77 74 70 65 60 56 52 50 47 45 43 41 40 38 38 37 37 37 37 36 35 34 33 33 33 34 33 31 30 29 28 26 24 23 22 21 21 21 20 20 19 17 16 15
82 83 84 85 86 87 89 91 91 92 91 91 89 89 88 89 90 92 95 97 100 102 103 103 103 103 103 104 105 104 100 96 92 90 89 88 87 84 82 79 76 72 68 63 58 54 51 49 46 44 42 40 39 38 37 36 36 36 37 36 36 34 33 32 31 32 32 32 31 30 28 27 26 25 23 22 21 20 20 20 20 18 17 15 14
86 87 87 87 88 89 90 90 89 88 88 87 88 90 92 95 97 99 101 103 104 105 104 104 103 104 105 105 104 101 97 93 90 88 87 86 84 81 79 76 72 67 62 57 53 50 48 45 43 41 40 39 38 37 36 36 36 36 36 36 35 34 33 32 31 31 30 30 30 29 28 27 26 25 24 23 21 20 19 19 19 18 17 15 14
86 87 87 88 89 90 89 89 88 88 90 92 94 96 98 100 101 103 104 105 105 104 104 105 106 106 106 104 101 98 94 91 89 87 84 82 80 78 75 72 68 62 57 52 48 46 45 43 41 40 39 37 36 36 35 35 36 36 36 35 35 35 33 32 32 31 30 29 29 28 28 27 26 25 24 23 22 20 19 18 18 18 17 15 14
Wind_Direction
289 291 293 295 297 297 298 300 301 302 303 304 305 305 306 307 308 310 312 313 314 315 316 316 317 319 320 321 322 323 322 322 322 320 319 317 316 316 316 316 317 317 318 318 317 315 315 317 316 313 310 307 304 301 299 298 296 295 294 294 294 294 294 294 294 295 296 298 301 303 304 305 303 300 297 294 294 293 291 286 281 278 276 278 281
288 290 292 294 295 295 296 298 300 300 300 301 302 303 304 306 307 310 311 312 313 313 314 315 316 317 319 320 321 322 322 321 321 320 319 318 317 316 316 316 317 318 319 319 318 315 314 316 316 314 312 309 306 304 302 301 300 299 298 297 296 295 295 295 296 298 299 301 303 304 305 304 301 300 299 299 298 297 294 289 285 282 280 281 284
287 289 291 292 293 294 295 297 298 298 298 299 300 301 303 305 307 309 311 311 312 312 313 313 314 316 318 319 320 321 321 321 320 320 319 318 317 315 315 316 317 318 319 320 318 315 314 315 316 315 313 311 308 306 305 304 303 302 301 299 298 297 297 298 300 302 304 305 305 306 306 304 301 300 301 301 300 298 296 293 289 285 283 283 285
287 289 290 291 291 293 294 295 296 296 296 297 298 300 302 304 306 307 309 310 310 310 312 312 314 315 317 318 320 320 321 320 320 319 318 317 316 315 315 316 317 318 319 319 317 314 313 315 316 314 312 310 308 306 305 305 304 304 303 302 301 301 302 302 304 305 307 307 307 307 307 305 302 301 302 301 300 299 297 294 291 289 288 287 287
286 287 288 289 290 291 293 293 294 294 295 296 297 299 302 303 304 305 307 308 309 310 311 312 313 314 316 318 319 320 320 319 319 318 317 316 316 315 316 316 318 318 318 318 315 313 314 316 315 312 310 308 308 307 306 305 306 307 307 305 305 304 305 306 306 307 307 307 307 307 306 304 302 301 301 299 298 297 296 294 293 292 291 290 290
283 284 286 287 288 290 291 292 292 293 294 296 297 299 300 302 302 304 306 308 309 310 311 312 313 314 316 318 318 319 319 318 318 317 316 316 315 315 316 317 318 318 318 318 315 313 315 315 313 311 310 309 309 309 308 308 309 310 309 307 306 306 307 307 307 306 305 305 306 306 304 301 298 297 296 296 296 296 295 294 293 292 291 291 291
281 283 284 286 287 288 289 290 291 292 294 295 296 297 299 301 303 304 306 308 309 309 310 311 312 313 315 317 318 317 317 317 317 317 316 315 314 314 316 317 317 317 318 317 314 312 315 315 313 312 311 310 311 310 309 309 310 310 309 307 306 306 307 308 307 306 305 306 306 306 303 298 295 295 295 296 296 295 294 293 292 291 291 291 291
280 281 283 284 285 287 288 289 290 292 293 294 295 297 299 301 303 305 306 307 308 309 310 311 312 313 315 316 317 317 317 317 317 317 317 315 313 314 316 316 316 317 318 317 314 313 315 314 314 314 311 309 311 311 310 311 311 310 308 306 305 305 307 308 308 308 308 308 307 305 303 300 297 298 298 297 296 295 293 292 291 291 291 291 292
278 279 281 282 283 285 287 288 290 291 292 294 295 297 299 300 302 304 305 306 307 308 310 310 311 312 313 314 315 316 316 316 316 317 315 312 312 314 314 315 316 317 317 316 315 315 315 315 316 315 311 309 311 312 312 313 311 309 306 304 303 304 305 306 309 311 311 309 307 305 303 301 299 298 297 295 294 293 293 292 292 291 291 292 292
277 278 279 281 283 284 286 288 289 291 292 293 295 296 298 300 302 303 304 305 306 308 308 309 310 311 312 313 314 315 314 314 314 315 313 309 310 313 314 315 316 316 316 317 316 316 316 316 317 313 307 307 310 312 315 314 310 308 305 303 302 302 303 305 308 311 312 309 307 307 305 303 301 299 298 297 295 295 294 294 294 294 294 293 293
275 276 278 280 282 284 285 287 288 289 291 293 295 296 298 299 301 302 303 304 305 305 306 307 309 310 312 312 313 313 313 312 313 314 312 310 311 313 314 315 315 316 317 317 316 316 316 315 314 309 303 306 309 312 315 313 308 304 302 299 299 300 301 304 306 309 310 308 308 309 308 306 304 303 302 300 299 299 298 297 296 296 296 295 295
274 276 277 279 281 283 284 286 287 289 291 293 294 296 298 299 300 301 302 302 302 303 305 306 308 310 311 311 312 312 311 311 312 312 312 312 312 313 314 315 315 316 316 317 317 317 315 314 313 310 307 309 312 312 314 312 306 302 299 297 297 299 301 302 304 306 308 307 309 310 310 308 307 305 303 302 301 301 300 299 298 297 297 296 296
273 275 276 278 281 282 284 286 287 289 291 293 294 296 297 298 299 300 300 301 302 303 305 307 308 309 310 310 310 310 310 310 311 311 312 312 313 314 315 315 316 316 317 317 318 317 316 313 313 313 311 312 313 314 314 313 309 304 300 298 299 301 302 302 304 305 306 307 309 311 310 308 307 305 303 302 302 301 301 300 300 299 299 298 297
272 273 275 278 280 282 284 286 287 289 291 292 294 295 296 297 298 299 300 301 302 304 305 307 308 309 309 309 308 309 309 309 310 311 312 313 314 315 315 315 316 317 318 318 317 317 316 313 314 315 314 312 314 314 314 313 310 305 302 302 304 305 305 305 306 307 307 308 310 311 310 308 306 304 303 302 302 302 302 302 301 301 301 300 298
272 273 274 277 279 282 284 286 287 289 290 292 293 294 295 296 297 299 300 301 303 304 305 307 308 308 308 308 308 309 309 309 310 311 312 313 314 315 316 316 316 317 318 318 317 317 315 314 315 315 313 312 312 313 313 313 311 308 307 307 308 308 308 308 309 309 309 310 310 310 309 306 305 303 303 302 303 303 303 303 302 301 301 300 299
273 274 275 278 280 282 284 286 288 289 290 292 293 294 295 296 297 299 300 301 303 304 305 306 307 307 308 308 308 309 309 309 310 311 312 314 315 315 316 316 316 317 317 317 316 315 313 313 314 314 312 311 311 312 313 313 312 310 309 310 310 310 309 309 309 309 309 309 309 309 307 305 304 304 303 304 304 304 304 304 303 302 302 302 301
273 274 277 280 282 283 285 287 288 290 291 292 293 294 295 296 297 298 300 301 302 303 305 306 306 307 308 308 309 309 310 310 311 312 313 314 315 315 315 316 316 316 315 314 312 310 310 312 313 313 312 311 311 312 312 311 311 311 311 311 311 310 309 308 308 309 309 309 309 308 306 305 305 305 305 305 306 305 305 305 304 303 303 303 302
274 275 279 281 282 284 287 288 289 290 292 293 293 294 295 296 297 298 299 301 302 303 305 306 306 308 308 309 310 310 311 311 311 312 313 314 314 314 315 315 315 314 314 312 308 307 308 311 312 312 311 310 311 313 310 309 312 313 312 311 310 309 308 308 308 309 309 309 308 307 307 307 307 307 307 307 307 306 306 306 305 305 305 304 302
274 276 279 280 282 286 288 288 289 291 292 293 294 295 296 296 297 298 299 300 301 302 304 305 306 308 308 309 310 311 311 311 311 312 313 313 313 314 314 314 313 313 312 309 307 306 308 310 310 310 310 311 313 313 311 310 312 312 311 310 310 309 308 308 308 309 309 308 307 307 307 307 308 308 308 308 308 307 307 307 307 307 307 305 303
275 276 278 280 283 286 288 288 290 291 293 294 295 295 296 296 297 298 298 299 300 302 304 305 306 307 308 309 310 310 311 311 311 311 311 311 312 313 313 312 312 311 310 308 307 307 308 309 310 310 311 312 312 312 311 310 310 310 309 309 308 308 308 308 308 308 308 307 307 307 307 308 308 308 308 308 308 308 308 308 309 309 308 307 304
275 277 279 281 283 285 286 288 290 291 292 294 295 296 296 297 298 298 298 299 301 303 304 305 305 307 308 309 310 310 310 310 310 310 310 310 311 311 311 311 310 310 308 307 307 308 309 310 310 311 310 310 310 310 309 309 308 308 308 308 308 308 308 308 308 307 307 306 306 307 308 308 308 308 308 308 308 308 308 308 308 308 308 306 303
276 278 280 282 283 284 285 287 289 290 292 293 294 295 297 298 299 299 299 300 302 304 304 304 305 307 308 308 308 308 308 308 308 308 309 309 310 310 310 310 310 309 308 308 308 309 309 309 309 309 309 309 309 309 309 308 307 307 307 307 307 307 307 307 306 306 306 306 306 307 307 307 307 307 308 308 308 308 308 309 308 308 307 304 302
276 278 280 280 281 283 285 287 288 289 291 292 293 295 296 297 296 296 298 299 301 303 303 304 305 306 307 307 307 307 307 307 307 307 308 308 309 309 309 310 309 309 308 308 308 309 308 307 307 308 308 308 308 308 307 307 306 306 306 306 306 306 306 306 305 305 306 306 306 306 306 306 307 307 308 308 308 308 309 309 308 308 307 304 302
275 277 278 279 281 282 284 285 287 288 289 290 292 293 293 292 291 292 295 297 299 301 302 303 304 305 306 306 306 305 305 306 306 306 307 307 308 309 309 309 309 309 309 308 309 308 308 307 307 307 307 307 307 307 306 306 305 305 305 306 305 305 305 305 305 305 305 305 305 306 306 306 307 307 308 308 308 308 308 308 308 307 306 303 301
274 275 276 278 280 282 283 284 285 286 287 288 289 289 289 288 288 290 293 296 298 299 300 302 303 304 305 305 304 304 304 305 305 306 306 307 308 309 309 309 309 309 309 309 308 308 308 307 307 307 307 307 307 306 306 305 306 306 306 306 305 305 305 305 305 304 304 304 305 305 305 306 306 307 307 307 307 307 307 307 306 306 304 302 301
272 273 275 277 279 280 281 282 283 284 285 286 286 287 287 286 287 290 292 295 296 297 299 301 302 303 303 303 302 303 304 305 305 306 307 307 308 309 309 309 309 309 309 309 308 308 308 307 307 306 306 306 306 306 306 306 306 306 306 306 305 305 305 304 304 304 304 304 305 305 305 306 306 307 307 307 306 306 306 306 305 304 302 301 300
270 271 273 275 277 279 280 281 282 283 284 285 286 287 287 287 288 290 292 294 295 296 298 300 301 301 301 301 301 303 305 305 306 306 307 307 308 308 309 309 309 309 308 308 308 308 307 307 307 306 306 306 306 307 307 307 307 307 306 305 305 305 304 304 304 303 303 304 304 304 304 305 306 306 306 305 305 305 305 304 303 302 301 300 299
269 271 273 275 276 278 279 280 282 283 284 285 286 287 287 288 289 290 291 292 294 295 297 298 299 299 299 300 302 304 305 306 306 306 307 307 308 308 308 309 308 308 308 308 308 308 308 307 307 307 307 307 308 308 307 307 307 306 305 305 305 304 304 303 303 303 303 303 304 304 304 305 305 305 304 304 304 303 303 302 301 300 299 298 297
269 270 272 274 275 277 279 280 281 283 284 285 286 286 287 288 288 289 290 292 293 294 296 297 298 298 299 300 302 304 305 305 306 306 306 307 307 308 308 308 308 308 308 308 309 308 308 308 308 308 309 309 309 308 308 307 307 306 305 305 305 304 304 304 304 304 304 305 305 305 305 305 304 304 303 302 302 302 301 300 299 298 297 296 295
268 270 272 274 275 277 279 279 280 281 283 284 285 286 286 287 288 289 290 292 294 295 296 297 298 298 299 301 302 304 304 305 305 306 306 306 307 308 308 308 308 308 309 309 309 309 309 310 311 311 311 310 309 308 308 307 307 306 305 305 305 305 305 305 305 305 305 305 305 305 304 303 302 302 302 301 301 300 299 298 297 296 295 295 294
269 270 272 274 275 276 277 278 279 281 282 283 284 285 286 287 289 290 292 293 295 295 295 296 297 297 298 300 301 303 303 304 304 305 306 307 308 308 308 308 308 309 309 309 310 311 312 312 312 312 311 310 308 308 307 306 305 305 304 304 304 303 304 304 304 303 304 304 304 303 303 302 301 301 301 300 300 299 298 297 296 295 294 294 293
269 271 272 273 274 274 275 276 278 280 281 282 284 285 287 289 291 292 293 293 293 292 292 293 294 295 296 298 300 301 302 302 303 305 306 307 308 308 308 308 309 309 310 311 312 313 313 313 312 311 310 309 308 307 306 306 305 305 305 304 304 303 304 303 302 302 302 302 302 301 301 300 300 300 300 299 298 297 297 296 295 295 294 293 291
270 271 272 271 271 272 274 277 278 280 281 283 285 286 288 290 290 290 290 289 288 288 289 291 292 293 295 296 298 299 300 302 304 305 306 307 307 307 308 309 310 311 312 313 314 313 313 313 312 311 310 308 307 306 306 307 307 307 306 305 305 304 304 304 303 302 302 302 301 300 300 299 299 299 298 298 297 296 296 295 295 295 294 292 290
270 269 267 268 270 272 275 277 279 280 282 284 286 286 286 286 286 285 285 285 285 286 288 289 291 292 294 295 296 298 300 302 304 305 306 307 307 307 308 309 310 311 312 313 313 312 312 312 312 311 309 308 307 307 308 308 308 307 306 306 305 305 305 304 303 303 302 302 301 301 300 300 299 299 298 297 296 295 295 295 295 295 294 292 290
267 264 265 269 272 274 276 277 279 281 283 283 284 283 282 281 281 282 282 283 284 285 287 288 290 292 293 295 296 299 301 303 304 305 306 307 307 308 309 310 311 311 312 311 311 312 312 312 312 311 309 308 308 308 308 308 307 307 306 306 305 305 305 304 303 303 302 302 302 302 301 301 300 299 298 297 296 296 296 296 296 295 294 291 288
263 264 267 272 274 275 277 278 280 281 281 280 279 278 278 279 279 279 281 282 283 285 287 288 290 292 293 295 298 300 302 303 304 305 306 307 308 309 310 310 311 311 310 310 311 312 312 313 312 311 309 309 309 308 308 307 307 306 306 305 305 305 304 303 303 303 303 303 303 303 302 301 300 299 298 298 297 297 297 297 296 295 293 290 287
266 268 271 273 275 276 277 278 278 278 276 276 275 275 275 276 277 278 280 282 284 285 287 288 290 292 294 297 300 301 302 303 305 306 307 307 308 309 309 309 309 309 310 310 311 312 313 313 312 310 310 309 309 308 308 307 306 306 306 305 305 305 304 304 304 304 304 305 305 304 303 302 301 300 300 299 298 298 298 297 296 294 291 288 285
268 270 272 274 276 276 277 276 275 273 271 271 272 273 274 276 278 279 281 283 284 286 288 289 291 293 296 299 300 301 302 305 306 307 307 308 308 309 308 308 308 309 309 310 311 312 313 312 311 310 309 309 308 308 308 307 307 306 306 305 305 305 306 306 306 305 305 306 305 305 304 303 302 301 300 300 299 298 298 297 295 293 290 286 283
270 272 274 276 277 277 275 274 273 271 271 272 273 274 276 277 279 281 282 283 285 287 289 290 292 294 296 299 300 301 303 306 307 307 307 308 308 308 308 308 308 309 310 310 311 312 312 310 309 309 309 308 308 308 307 306 306 305 305 305 306 307 307 308 308 308 308 307 306 305 304 303 302 301 300 299 299 298 297 296 294 292 288 284 280
271 272 274 274 274 273 271 271 271 271 272 273 274 276 277 279 280 282 283 284 286 288 290 292 293 295 298 300 301 303 304 306 306 307 307 307 308 308 307 308 309 310 310 311 312 311 310 309 309 309 309 308 308 307 306 305 305 305 306 307 308 308 309 309 309 310 310 309 308 307 305 304 303 302 300 300 299 298 297 296 293 290 287 282 278
269 270 269 268 267 266 266 267 269 270 271 273 275 277 278 280 281 283 284 286 288 290 291 293 295 297 299 301 302 303 304 306 306 306 307 308 308 308 308 309 310 310 311 311 311 311 310 309 309 309 309 308 307 306 306 306 306 307 308 309 309 309 310 310 311 311 311 311 310 309 307 306 304 303 301 300 300 299 297 295 293 291 287 282 277
266 266 264 263 264 265 266 268 270 272 274 276 277 279 281 282 283 285 287 289 290 291 293 295 297 298 300 301 302 303 305 306 307 307 307 309 309 309 309 309 310 310 311 311 311 310 310 310 310 309 309 307 306 305 305 306 307 308 309 309 309 310 310 311 312 312 312 312 311 310 308 307 305 304 303 302 301 299 298 297 296 293 289 283 276
263 262 262 263 265 268 270 272 273 275 277 279 280 281 283 284 286 287 289 290 292 293 294 296 297 298 299 300 302 304 306 307 307 307 308 309 309 309 309 309 310 310 311 311 311 310 310 310 309 309 308 306 305 305 305 307 308 308 309 309 309 310 311 312 313 314 314 314 313 311 309 307 306 305 304 303 301 300 299 299 297 295 290 283 275
262 262 263 265 267 269 271 273 274 277 279 280 282 283 284 286 287 289 290 291 292 294 295 296 297 298 299 301 304 306 307 307 307 308 309 309 309 309 309 310 310 311 311 311 310 310 309 309 308 307 306 305 305 305 306 307 308 308 308 309 309 311 312 313 314 315 316 315 314 313 310 308 306 305 305 304 302 301 300 299 298 295 290 283 275
263 264 266 268 270 272 273 275 276 278 280 281 282 284 285 286 288 289 291 292 293 295 295 296 296 297 300 302 305 306 307 307 308 308 308 308 309 309 310 310 310 310 310 310 309 309 308 308 307 306 305 304 304 305 306 306 307 308 308 309 310 312 314 314 315 316 317 317 315 314 312 309 307 306 306 305 304 302 301 300 298 294 290 284 275
264 266 268 270 272 273 274 275 277 278 280 281 282 283 285 287 288 290 292 293 294 294 294 295 296 298 301 303 305 306 307 308 308 308 308 308 309 310 310 310 309 309 309 308 308 307 306 306 305 304 304 304 304 304 305 306 307 308 310 311 312 313 314 314 315 316 317 318 316 315 313 310 308 307 307 307 305 303 301 300 297 293 290 285 275
264 265 267 269 270 272 274 276 277 278 280 281 282 284 286 288 289 290 291 292 293 293 294 295 297 300 302 304 305 307 307 308 308 308 308 308 309 309 310 309 308 308 308 307 306 306 305 304 303 303 303 303 303 304 305 307 308 310 311 312 312 313 314 315 315 316 317 318 317 315 313 311 308 307 308 307 306 304 301 299 296 292 289 286 278
264 265 267 269 271 272 274 276 277 279 281 282 284 285 286 287 288 289 290 291 292 293 295 297 299 301 303 305 306 307 308 308 308 308 308 309 309 309 309 308 308 307 307 306 305 304 303 303 303 302 302 302 303 304 306 308 310 311 312 312 311 312 313 315 316 316 316 317 317 315 314 311 308 307 307 306 306 304 301 298 295 291 289 286 280
265 266 268 270 272 274 276 278 279 281 282 283 284 284 285 285 287 289 290 292 293 295 297 299 300 302 304 305 306 307 308 308 308 308 308 308 308 308 308 307 307 307 306 304 303 302 302 301 302 301 301 302 303 305 307 309 310 310 310 310 310 311 314 316 317 317 316 316 316 315 314 312 308 306 305 304 304 303 300 296 293 290 287 286 282
267 268 270 272 274 277 279 280 280 281 280 280 281 282 284 285 287 289 291 293 295 297 299 300 301 303 304 305 306 307 308 308 307 307 307 307 307 307 307 307 306 306 304 302 301 301 301 301 301 300 301 303 304 306 308 309 309 308 309 309 310 313 315 317 317 317 316 316 315 315 314 312 308 305 302 301 301 300 298 293 290 287 285 284 282
269 271 273 275 277 277 278 278 278 278 279 280 281 283 285 286 288 290 292 295 296 298 300 301 303 304 305 306 307 307 307 307 307 307 306 306 306 307 307 306 305 304 302 300 299 299 299 299 299 300 301 302 304 305 307 308 308 308 309 310 312 313 315 316 317 317 316 315 315 314 313 311 308 304 300 298 297 296 294 290 286 283 281 279 278
Height
10958 10958 10957 10957 10957 10956 10956 10955 10954 10953 10952 10950 10949 10948 10946 10944 10943 10941 10940 10938 10936 10934 10933 10931 10928 10927 10925 10922 10919 10916 10914 10911 10908 10906 10904 10901 10898 10895 10893 10890 10888 10885 10882 10879 10875 10872 10870 10866 10864 10861 10860 10858 10857 10855 10853 10851 10849 10847 10845 10843 10841 10839 10836 10832 10828 10823 10820 10821 10819 10814 10810 10808 10805 10804 10803 10802 10801 10800 10799 10797 10795 10794 10792 10790 10788
10955 10954 10954 10954 10953 10953 10952 10951 10951 10949 10948 10946 10945 10944 10943 10941 10939 10938 10936 10934 10932 10930 10929 10927 10925 10923 10920 10918 10915 10912 10910 10907 10904 10901 10899 10897 10893 10890 10887 10884 10882 10879 10876 10873 10869 10866 10864 10862 10859 10856 10854 10852 10850 10848 10846 10844 10842 10840 10838 10835 10833 10831 10828 10824 10820 10815 10810 10809 10808 10806 10802 10799 10796 10794 10794 10794 10793 10791 10790 10789 10787 10785 10782 10779 10777
10950 10951 10950 10950 10949 10948 10948 10947 10946 10945 10943 10942 10941 10940 10939 10937 10935 10934 10933 10931 10928 10926 10925 10923 10921 10919 10917 10914 10910 10907 10905 10902 10899 10897 10895 10892 10889 10886 10883 10880 10877 10874 10870 10867 10863 10860 10858 10856 10853 10850 10847 10844 10842 10839 10837 10835 10833 10831 10829 10827 10824 10821 10818 10815 10811 10806 10801 10797 10796 10795 10793 10791 10788 10786 10786 10785 10784 10782 10781 10779 10777 10775 10772 10770 10767
10946 10946 10946 10945 10945 10944 10944 10943 10942 10940 10939 10937 10936 10935 10935 10933 10931 10930 10929 10927 10924 10923 10921 10918 10916 10915 10913 10909 10906 10903 10900 10897 10895 10892 10889 10887 10885 10881 10878 10875 10872 10869 10865 10861 10858 10855 10852 10850 10847 10843 10840 10837 10834 10832 10830 10827 10825 10823 10821 10818 10814 10811 10808 10806 10802 10799 10794 10789 10785 10784 10784 10782 10780 10778 10778 10776 10774 10772 10771 10770 10768 10766 10763 10761 10758
10942 10942 10941 10940 10940 10939 10939 10938 10937 10935 10934 10932 10931 10930 10930 10929 10927 10927 10926 10924 10920 10918 10916 10914 10911 10909 10908 10905 10901 10898 10895 10892 10889 10887 10884 10882 10879 10876 10873 10870 10867 10863 10860 10856 10852 10849 10846 10843 10840 10836 10833 10830 10828 10825 10822 10820 10818 10815 10812 10809 10805 10802 10799 10797 10794 10791 10789 10785 10780 10777 10776 10775 10772 10770 10769 10769 10766 10764 10762 10761 10759 10756 10753 10750 10747
10937 10937 10937 10936 10935 10935 10934 10933 10931 10930 10929 10927 10925 10925 10926 10924 10922 10922 10922 10920 10916 10913 10910 10908 10906 10903 10902 10900 10896 10893 10890 10888 10885 10883 10880 10877 10874 10871 10867 10864 10861 10858 10855 10851 10847 10843 10841 10838 10834 10830 10827 10824 10821 10818 10815 10813 10810 10808 10804 10800 10796 10794 10791 10788 10787 10784 10783 10780 10777 10772 10770 10768 10766 10764 10762 10761 10759 10756 10753 10751 10748 10744 10741 10738 10734
10932 10931 10931 10930 10929 10930 10929 10927 10926 10925 10923 10922 10920 10920 10920 10919 10917 10916 10916 10915 10913 10909 10906 10903 10900 10897 10896 10895 10891 10887 10885 10883 10880 10878 10875 10872 10869 10865 10862 10859 10856 10853 10849 10846 10843 10839 10836 10832 10828 10824 10820 10817 10814 10811 10808 10806 10803 10800 10796 10791 10788 10786 10784 10781 10780 10778 10776 10773 10770 10767 10764 10761 10759 10757 10754 10752 10750 10747 10743 10741 10737 10733 10729 10726 10722
10926 10925 10926 10925 10924 10924 10923 10922 10921 10919 10918 10916 10914 10914 10915 10914 10913 10910 10909 10908 10907 10905 10902 10898 10895 10891 10889 10888 10886 10882 10879 10876 10874 10873 10870 10866 10862 10860 10856 10853 10850 10847 10843 10840 10838 10834 10831 10827 10822 10818 10814 10811 10808 10805 10802 10799 10796 10791 10787 10783 10780 10778 10776 10775 10773 10772 10770 10767 10763 10760 10758 10754 10751 10748 10744 10741 10739 10735 10732 10730 10726 10721 10717 10713 10708
10920 10920 10920 10919 10919 10919 10918 10916 10915 10914 10912 10910 10909 10908 10908 10908 10908 10906 10904 10902 10901 10900 10898 10894 10890 10887 10883 10882 10881 10878 10874 10871 10869 10868 10864 10860 10857 10855 10851 10847 10844 10841 10837 10834 10832 10828 10825 10821 10816 10811 10807 10803 10800 10798 10796 10792 10787 10783 10780 10776 10774 10771 10768 10767 10765 10764 10762 10759 10755 10752 10749 10746 10742 10739 10735 10731 10728 10724 10719 10716 10713 10709 10704 10700 10695
10914 10913 10913 10913 10913 10913 10912 10911 10910 10908 10906 10905 10904 10903 10903 10902 10902 10902 10899 10896 10895 10894 10893 10891 10888 10883 10878 10875 10875 10873 10869 10866 10865 10865 10861 10856 10853 10850 10845 10841 10838 10834 10831 10827 10824 10821 10818 10814 10810 10805 10801 10797 10793 10790 10789 10785 10780 10776 10773 10769 10767 10763 10761 10758 10756 10754 10752 10749 10744 10741 10738 10734 10731 10727 10724 10719 10716 10712 10708 10704 10700 10696 10692 10689 10683
10907 10907 10907 10907 10907 10907 10906 10906 10904 10903 10901 10900 10898 10897 10896 10896 10896 10895 10894 10892 10890 10888 10888 10886 10884 10880 10875 10870 10868 10867 10864 10860 10859 10860 10857 10853 10848 10844 10839 10834 10831 10828 10824 10819 10816 10813 10810 10806 10803 10800 10797 10792 10787 10783 10781 10777 10773 10769 10766 10762 10759 10756 10753 10751 10747 10745 10743 10740 10735 10730 10726 10722 10718 10714 10710 10706 10702 10699 10696 10692 10689 10685 10681 10678 10673
10900 10901 10901 10901 10901 10901 10901 10900 10899 10897 10896 10894 10892 10891 10890 10889 10889 10888 10887 10886 10884 10883 10882 10880 10879 10877 10873 10867 10862 10860 10858 10855 10853 10852 10850 10847 10842 10838 10833 10828 10824 10821 10817 10812 10808 10805 10802 10798 10795 10794 10790 10785 10780 10777 10774 10771 10767 10762 10758 10754 10751 10748 10746 10743 10740 10738 10735 10731 10726 10720 10714 10711 10706 10702 10698 10695 10691 10687 10684 10681 10677 10674 10671 10667 10663
10894 10896 10896 10895 10895 10895 10895 10895 10893 10891 10890 10889 10887 10886 10884 10883 10882 10882 10881 10879 10878 10876 10874 10873 10872 10871 10869 10864 10859 10855 10851 10848 10847 10845 10842 10839 10836 10831 10826 10821 10817 10813 10810 10806 10801 10798 10794 10790 10787 10785 10782 10777 10773 10769 10765 10763 10760 10755 10751 10746 10742 10740 10738 10734 10732 10729 10726 10722 10717 10710 10703 10700 10696 10692 10688 10685 10682 10677 10674 10670 10666 10662 10659 10655 10650
10888 10890 10891 10890 10890 10890 10889 10888 10887 10886 10885 10883 10881 10880 10878 10876 10875 10875 10874 10872 10870 10868 10867 10865 10863 10862 10861 10859 10855 10851 10846 10841 10840 10839 10835 10831 10828 10824 10818 10814 10810 10806 10803 10799 10795 10791 10786 10782 10778 10776 10772 10768 10765 10762 10758 10755 10752 10749 10744 10739 10735 10731 10728 10724 10721 10717 10713 10709 10706 10700 10693 10688 10685 10682 10678 10675 10672 10669 10665 10660 10655 10651 10647 10642 10636
10882 10884 10885 10885 10885 10885 10884 10882 10880 10880 10879 10877 10875 10873 10871 10869 10868 10867 10867 10865 10863 10861 10860 10858 10856 10853 10851 10850 10848 10844 10840 10835 10832 10831 10828 10823 10820 10816 10811 10806 10802 10798 10795 10791 10788 10784 10779 10774 10771 10768 10764 10760 10756 10754 10752 10748 10745 10741 10736 10731 10726 10721 10716 10712 10709 10706 10701 10697 10694 10689 10683 10678 10675 10672 10668 10665 10662 10659 10655 10650 10644 10640 10637 10631 10624
10876 10878 10879 10879 10880 10880 10878 10876 10875 10873 10872 10871 10869 10867 10865 10863 10861 10860 10859 10859 10857 10855 10852 10851 10849 10847 10844 10841 10840 10837 10833 10828 10824 10822 10820 10817 10813 10809 10804 10798 10794 10791 10788 10784 10780 10775 10771 10767 10764 10760 10757 10752 10747 10744 10743 10739 10735 10731 10727 10722 10717 10712 10707 10702 10699 10696 10692 10687 10684 10680 10675 10670 10666 10662 10657 10654 10651 10648 10645 10639 10633 10629 10626 10620 10613
10869 10871 10872 10873 10874 10873 10872 10871 10869 10867 10866 10865 10863 10860 10858 10856 10854 10853 10852 10851 10850 10847 10844 10842 10840 10839 10836 10833 10831 10829 10825 10820 10815 10812 10811 10810 10807 10802 10797 10792 10787 10783 10781 10778 10773 10767 10763 10760 10756 10752 10749 10744 10740 10737 10733 10729 10725 10721 10717 10713 10709 10703 10698 10693 10689 10686 10682 10677 10672 10668 10664 10659 10656 10651 10646 10642 10639 10636 10633 10628 10622 10617 10614 10609 10602
10863 10864 10865 10866 10866 10867 10867 10865 10862 10860 10858 10857 10855 10852 10850 10849 10847 10846 10845 10844 10842 10840 10837 10833 10830 10829 10827 10824 10821 10819 10816 10812 10807 10803 10801 10801 10798 10795 10790 10785 10780 10775 10772 10770 10766 10760 10756 10752 10748 10745 10741 10737 10733 10730 10725 10719 10715 10710 10706 10702 10698 10693 10687 10683 10679 10676 10672 10666 10661 10656 10651 10646 10643 10639 10634 10630 10626 10623 10620 10615 10609 10604 10601 10596 10590
10857 10857 10857 10859 10859 10860 10860 10859 10856 10854 10851 10848 10846 10843 10841 10840 10838 10838 10837 10836 10835 10833 10830 10826 10822 10820 10818 10815 10812 10810 10807 10802 10798 10795 10792 10791 10789 10786 10782 10778 10773 10769 10765 10762 10757 10752 10748 10744 10740 10737 10734 10729 10724 10721 10716 10710 10705 10700 10696 10692 10687 10682 10677 10672 10668 10665 10661 10656 10651 10647 10642 10637 10632 10627 10622 10617 10612 10609 10605 10601 10595 10590 10587 10582 10577
10849 10849 10851 10852 10853 10853 10852 10851 10850 10848 10844 10840 10837 10834 10831 10829 10828 10829 10829 10827 10826 10825 10822 10819 10816 10813 10810 10807 10804 10801 10798 10794 10790 10786 10784 10782 10780 10778 10775 10770 10766 10762 10759 10754 10749 10744 10740 10737 10732 10728 10725 10721 10716 10712 10707 10701 10696 10692 10687 10682 10678 10673 10667 10662 10658 10654 10649 10644 10640 10636 10632 10628 10624 10619 10614 10608 10602 10597 10593 10588 10582 10577 10573 10568 10563
10841 10843 10844 10846 10846 10846 10845 10844 10844 10842 10838 10834 10830 10826 10822 10819 10818 10818 10819 10819 10817 10816 10814 10812 10810 10807 10804 10801 10797 10792 10789 10786 10782 10778 10775 10773 10771 10769 10766 10763 10758 10755 10751 10746 10741 10737 10733 10728 10723 10719 10715 10712 10708 10705 10700 10693 10688 10684 10679 10674 10669 10664 10658 10653 10648 10644 10640 10635 10630 10626 10622 10618 10614 10610 10604 10599 10594 10588 10583 10578 10573 10568 10563 10559 10555
10834 10836 10838 10839 10838 10838 10838 10838 10838 10836 10832 10828 10823 10819 10814 10811 10808 10807 10809 10810 10809 10808 10806 10804 10803 10801 10798 10795 10790 10785 10782 10779 10775 10771 10768 10765 10762 10760 10758 10755 10751 10747 10743 10738 10734 10730 10725 10720 10715 10711 10706 10702 10698 10695 10690 10683 10678 10673 10669 10665 10660 10655 10650 10645 10640 10635 10630 10625 10621 10618 10613 10608 10604 10599 10594 10589 10583 10578 10573 10567 10563 10558 10554 10549 10545
10828 10830 10831 10830 10830 10830 10831 10831 10830 10828 10825 10822 10818 10813 10809 10805 10801 10799 10800 10801 10800 10799 10798 10796 10795 10793 10791 10788 10784 10779 10775 10771 10768 10765 10761 10758 10755 10752 10749 10747 10743 10739 10735 10731 10726 10723 10718 10713 10707 10703 10698 10694 10690 10685 10681 10675 10669 10665 10661 10656 10652 10647 10642 10637 10632 10628 10622 10617 10613 10609 10604 10599 10595 10590 10584 10579 10573 10568 10563 10557 10552 10548 10543 10538 10535
10822 10822 10822 10821 10821 10822 10823 10824 10823 10821 10819 10816 10812 10808 10804 10800 10796 10794 10794 10794 10793 10791 10789 10787 10787 10785 10783 10781 10776 10771 10768 10764 10760 10757 10754 10751 10748 10744 10741 10738 10734 10729 10726 10721 10717 10714 10710 10704 10698 10694 10690 10685 10682 10677 10672 10666 10661 10656 10652 10647 10642 10638 10633 10628 10624 10619 10613 10608 10604 10600 10594 10590 10585 10580 10575 10570 10564 10558 10553 10548 10543 10539 10535 10529 10525
10815 10814 10813 10813 10814 10815 10816 10815 10815 10814 10813 10810 10807 10803 10798 10794 10790 10788 10788 10787 10786 10784 10781 10780 10779 10777 10775 10773 10769 10764 10761 10757 10753 10750 10747 10743 10740 10736 10732 10729 10725 10721 10717 10712 10708 10705 10700 10695 10690 10685 10680 10676 10672 10668 10662 10656 10652 10647 10642 10638 10633 10628 10623 10619 10614 10610 10604 10600 10596 10591 10585 10580 10575 10570 10565 10560 10554 10549 10544 10540 10535 10530 10526 10522 10518
10806 10805 10806 10807 10808 10808 10808 10807 10806 10806 10805 10803 10800 10797 10793 10788 10784 10783 10782 10781 10779 10777 10774 10773 10771 10769 10767 10765 10761 10757 10754 10750 10746 10742 10739 10735 10732 10727 10723 10719 10716 10712 10708 10704 10701 10697 10692 10688 10683 10677 10672 10668 10663 10658 10653 10647 10642 10638 10633 10628 10623 10619 10614 10610 10605 10599 10594 10590 10586 10580 10575 10570 10565 10560 10555 10550 10545 10540 10536 10532 10527 10522 10519 10515 10511
10798 10798 10799 10801 10801 10801 10800 10799 10798 10797 10796 10794 10792 10790 10787 10783 10780 10778 10776 10774 10772 10770 10768 10766 10764 10761 10758 10756 10752 10749 10745 10742 10738 10734 10731 10727 10724 10720 10715 10711 10707 10703 10700 10696 10693 10688 10683 10679 10675 10669 10664 10660 10655 10649 10643 10638 10633 10628 10623 10618 10613 10608 10603 10599 10595 10589 10583 10580 10577 10571 10565 10560 10556 10550 10545 10540 10536 10532 10528 10524 10520 10515 10511 10508 10505
10791 10792 10793 10794 10794 10793 10792 10791 10789 10788 10786 10785 10784 10782 10779 10777 10774 10771 10769 10767 10766 10763 10760 10759 10756 10753 10750 10747 10744 10741 10738 10734 10730 10726 10722 10718 10716 10712 10708 10704 10699 10695 10690 10686 10682 10677 10671 10667 10664 10659 10654 10650 10645 10640 10634 10629 10624 10619 10613 10608 10604 10598 10592 10588 10584 10578 10573 10569 10566 10561 10555 10550 10545 10540 10536 10531 10527 10523 10520 10516 10513 10509 10505 10502 10499
10783 10785 10786 10787 10786 10786 10785 10784 10782 10779 10777 10776 10776 10774 10772 10769 10767 10764 10762 10761 10759 10756 10753 10751 10749 10745 10741 10739 10736 10733 10730 10726 10722 10718 10713 10709 10706 10703 10699 10695 10690 10685 10681 10676 10672 10667 10660 10655 10652 10647 10643 10638 10633 10628 10624 10619 10615 10609 10602 10597 10593 10587 10581 10575 10569 10563 10560 10556 10552 10547 10543 10538 10534 10530 10526 10522 10519 10515 10512 10509 10506 10502 10499 10496 10493
10775 10777 10778 10778 10778 10779 10778 10775 10772 10770 10769 10768 10768 10766 10764 10761 10759 10756 10754 10753 10750 10747 10745 10743 10740 10736 10733 10730 10728 10726 10723 10719 10714 10709 10705 10701 10697 10693 10688 10683 10679 10675 10671 10667 10662 10657 10651 10645 10639 10635 10631 10626 10620 10615 10612 10608 10604 10598 10592 10587 10581 10575 10571 10565 10556 10550 10547 10544 10540 10536 10533 10528 10524 10520 10517 10514 10510 10507 10504 10501 10499 10495 10492 10490 10487
10768 10770 10770 10769 10769 10770 10769 10766 10763 10762 10761 10759 10759 10758 10755 10754 10751 10748 10746 10744 10741 10738 10736 10734 10731 10728 10724 10721 10720 10717 10715 10711 10706 10701 10696 10692 10688 10683 10678 10674 10669 10665 10661 10656 10651 10646 10641 10635 10630 10625 10621 10616 10610 10605 10601 10598 10594 10590 10585 10579 10573 10568 10564 10559 10550 10543 10539 10535 10530 10526 10522 10518 10515 10511 10508 10505 10502 10498 10496 10494 10491 10489 10486 10483 10481
10761 10761 10761 10760 10760 10760 10759 10757 10755 10754 10753 10751 10750 10749 10747 10745 10743 10740 10737 10736 10733 10730 10728 10726 10724 10721 10717 10714 10711 10708 10705 10702 10698 10692 10687 10683 10678 10674 10669 10665 10660 10655 10650 10645 10639 10634 10629 10625 10621 10616 10611 10606 10600 10594 10590 10586 10583 10578 10574 10568 10562 10557 10555 10550 10542 10536 10532 10528 10522 10518 10513 10509 10506 10503 10500 10497 10494 10491 10488 10486 10484 10482 10480 10478 10476
10753 10753 10751 10751 10751 10751 10750 10748 10746 10745 10744 10743 10742 10740 10738 10737 10735 10732 10730 10728 10726 10723 10721 10719 10716 10713 10710 10707 10703 10698 10694 10692 10688 10683 10679 10674 10670 10665 10661 10656 10651 10646 10640 10635 10628 10623 10618 10614 10610 10606 10601 10596 10589 10582 10577 10573 10569 10564 10559 10554 10548 10544 10541 10537 10530 10524 10521 10517 10513 10509 10505 10501 10498 10495 10492 10489 10487 10484 10481 10479 10477 10476 10474 10471 10470
10745 10744 10742 10741 10743 10744 10742 10739 10736 10735 10735 10734 10733 10732 10731 10729 10727 10725 10723 10721 10719 10717 10714 10711 10708 10705 10702 10699 10695 10690 10686 10682 10678 10674 10670 10666 10662 10658 10653 10648 10643 10638 10633 10627 10620 10614 10609 10605 10600 10595 10590 10585 10579 10572 10567 10562 10556 10552 10547 10541 10536 10532 10528 10524 10518 10513 10509 10506 10503 10500 10497 10493 10490 10487 10485 10482 10479 10477 10475 10473 10471 10469 10468 10465 10464
10735 10735 10733 10733 10734 10735 10733 10729 10728 10728 10727 10726 10724 10724 10723 10722 10720 10718 10716 10714 10711 10709 10706 10703 10699 10696 10693 10690 10687 10683 10679 10675 10670 10666 10662 10658 10654 10649 10644 10640 10636 10631 10626 10619 10612 10605 10600 10595 10590 10584 10579 10574 10569 10563 10558 10551 10545 10540 10535 10530 10525 10522 10517 10513 10509 10504 10500 10497 10494 10491 10488 10485 10483 10480 10478 10475 10473 10471 10469 10467 10465 10464 10462 10460 10458
10725 10726 10726 10725 10726 10726 10724 10721 10721 10720 10719 10718 10718 10717 10716 10715 10713 10710 10709 10706 10702 10699 10697 10694 10691 10687 10684 10681 10678 10675 10670 10666 10661 10657 10653 10649 10644 10639 10635 10631 10627 10623 10617 10610 10603 10596 10589 10584 10579 10573 10568 10563 10558 10554 10549 10542 10536 10530 10525 10520 10516 10513 10509 10504 10501 10497 10492 10489 10486 10483 10481 10478 10476 10473 10471 10469 10466 10464 10463 10461 10460 10458 10457 10455 10453
10717 10717 10717 10716 10716 10716 10715 10714 10714 10713 10711 10710 10710 10709 10708 10707 10705 10703 10701 10698 10694 10690 10688 10686 10682 10678 10675 10672 10669 10665 10661 10657 10652 10648 10644 10639 10634 10629 10625 10621 10618 10615 10610 10602 10594 10587 10579 10572 10567 10562 10556 10551 10546 10542 10538 10533 10527 10521 10516 10511 10508 10504 10501 10497 10493 10490 10486 10483 10479 10476 10474 10472 10469 10467 10465 10463 10461 10459 10457 10456 10454 10453 10452 10450 10449
10708 10708 10708 10707 10707 10707 10706 10706 10707 10706 10704 10703 10701 10700 10699 10698 10697 10695 10694 10691 10686 10682 10680 10678 10674 10670 10666 10663 10660 10657 10653 10649 10644 10639 10634 10630 10624 10620 10615 10611 10608 10605 10601 10594 10586 10580 10572 10564 10558 10552 10547 10541 10535 10530 10526 10521 10517 10512 10508 10504 10500 10496 10492 10489 10485 10483 10480 10477 10474 10470 10468 10465 10463 10461 10459 10457 10455 10454 10452 10451 10449 10448 10447 10446 10445
10699 10699 10699 10699 10699 10698 10698 10698 10698 10698 10697 10696 10694 10693 10691 10690 10688 10687 10686 10683 10679 10675 10672 10670 10666 10662 10658 10655 10652 10648 10645 10641 10636 10630 10625 10620 10615 10609 10605 10601 10597 10594 10590 10584 10578 10571 10564 10557 10551 10545 10538 10532 10526 10521 10517 10513 10508 10505 10501 10497 10493 10489 10485 10482 10478 10475 10473 10470 10468 10465 10463 10460 10458 10456 10454 10452 10450 10449 10448 10446 10445 10444 10443 10442 10441
10693 10693 10693 10693 10692 10691 10691 10691 10690 10689 10689 10688 10686 10684 10683 10681 10680 10678 10676 10674 10671 10668 10665 10662 10657 10653 10649 10647 10643 10639 10636 10632 10627 10622 10616 10610 10604 10599 10594 10590 10587 10582 10577 10573 10567 10560 10553 10547 10543 10537 10530 10522 10517 10512 10509 10505 10501 10498 10494 10491 10487 10484 10480 10476 10473 10470 10467 10464 10462 10460 10457 10455 10453 10451 10449 10448 10446 10444 10443 10442 10441 10440 10438 10437 10437
10687 10687 10686 10686 10686 10684 10684 10684 10683 10681 10680 10679 10678 10676 10675 10673 10671 10669 10666 10664 10662 10659 10656 10652 10648 10643 10640 10638 10634 10630 10626 10622 10618 10613 10607 10600 10594 10588 10583 10579 10576 10572 10567 10562 10556 10548 10541 10536 10532 10528 10522 10515 10509 10504 10500 10497 10494 10491 10488 10484 10481 10478 10475 10471 10468 10465 10462 10459 10457 10454 10452 10450 10449 10447 10445 10443 10442 10440 10439 10437 10436 10436 10435 10434 10433
10680 10679 10679 10679 10678 10677 10676 10675 10674 10673 10671 10670 10669 10668 10666 10664 10662 10659 10656 10654 10651 10648 10646 10643 10638 10633 10631 10628 10625 10621 10617 10613 10608 10603 10597 10590 10583 10577 10572 10567 10564 10560 10556 10552 10546 10538 10532 10525 10520 10517 10513 10509 10503 10498 10494 10491 10488 10485 10482 10479 10476 10473 10470 10467 10464 10461 10458 10455 10452 10450 10448 10446 10444 10442 10441 10439 10437 10436 10434 10433 10432 10432 10431 10430 10430
10673 10672 10671 10672 10671 10670 10668 10666 10664 10664 10662 10660 10659 10658 10656 10654 10652 10649 10647 10644 10641 10638 10636 10633 10629 10624 10621 10618 10615 10612 10608 10602 10597 10592 10588 10582 10575 10569 10563 10557 10552 10548 10544 10539 10534 10529 10523 10517 10511 10507 10504 10500 10496 10492 10489 10486 10483 10480 10477 10474 10471 10468 10465 10462 10459 10456 10453 10451 10448 10446 10444 10442 10440 10438 10437 10435 10433 10432 10430 10429 10429 10428 10428 10427 10427
10665 10664 10664 10664 10664 10663 10660 10657 10656 10655 10654 10652 10650 10648 10646 10644 10642 10640 10638 10635 10632 10629 10627 10624 10619 10615 10612 10608 10604 10600 10595 10590 10585 10581 10576 10571 10566 10561 10555 10548 10542 10537 10533 10528 10522 10518 10514 10510 10505 10500 10496 10492 10489 10486 10483 10480 10478 10475 10472 10469 10466 10464 10461 10458 10455 10452 10449 10446 10444 10442 10440 10438 10436 10435 10433 10431 10430 10428 10427 10426 10426 10425 10425 10424 10424
10656 10656 10656 10655 10655 10653 10651 10648 10647 10646 10646 10643 10640 10638 10637 10635 10633 10631 10629 10627 10623 10620 10617 10615 10610 10606 10602 10598 10593 10588 10583 10578 10573 10568 10563 10559 10556 10552 10547 10540 10533 10528 10524 10519 10513 10508 10504 10501 10497 10493 10489 10486 10483 10480 10477 10475 10473 10470 10467 10464 10462 10459 10456 10453 10450 10448 10445 10442 10440 10438 10436 10434 10432 10431 10430 10428 10427 10425 10424 10423 10423 10423 10422 10422 10422
10648 10647 10646 10646 10645 10643 10641 10639 10638 10638 10637 10634 10632 10630 10629 10627 10625 10622 10620 10618 10614 10610 10607 10605 10602 10597 10592 10587 10583 10578 10572 10567 10563 10558 10552 10547 10545 10542 10537 10531 10525 10520 10515 10510 10505 10500 10496 10493 10490 10486 10483 10480 10477 10474 10472 10470 10467 10465 10462 10460 10457 10455 10452 10450 10446 10444 10441 10439 10436 10434 10432 10430 10429 10428 10426 10425 10424 10422 10421 10421 10420 10420 10420 10420 10419
10639 10638 10637 10637 10636 10634 10633 10631 10629 10628 10627 10625 10623 10622 10620 10618 10615 10613 10611 10608 10604 10599 10596 10595 10593 10588 10583 10578 10573 10568 10562 10556 10552 10547 10542 10536 10533 10531 10527 10522 10516 10512 10506 10501 10497 10493 10489 10486 10483 10480 10477 10474 10471 10469 10466 10464 10462 10460 10457 10455 10453 10451 10449 10446 10443 10440 10437 10435 10433 10430 10429 10427 10425 10424 10423 10422 10421 10420 10419 10418 10418 10418 10417 10417 10417
10630 10629 10629 10628 10627 10626 10624 10622 10620 10619 10618 10616 10614 10613 10611 10609 10606 10604 10601 10598 10594 10589 10586 10584 10582 10578 10574 10569 10563 10557 10551 10545 10540 10536 10531 10526 10522 10520 10517 10512 10508 10503 10498 10493 10489 10486 10483 10480 10477 10474 10471 10469 10466 10464 10462 10459 10457 10454 10452 10450 10448 10447 10445 10442 10439 10437 10434 10432 10430 10427 10425 10424 10422 10421 10420 10419 10418 10417 10416 10415 10415 10415 10415 10415 10415
10621 10620 10620 10619 10618 10617 10615 10612 10611 10611 10609 10606 10605 10604 10601 10598 10596 10594 10591 10587 10583 10579 10575 10573 10570 10567 10563 10559 10553 10546 10541 10536 10531 10526 10521 10516 10511 10509 10506 10502 10498 10495 10491 10486 10482 10479 10476 10473 10471 10468 10466 10463 10461 10459 10457 10455 10452 10450 10448 10446 10444 10443 10441 10438 10436 10433 10431 10429 10426 10424 10422 10421 10419 10418 10417 10416 10415 10415 10414 10413 10413 10413 10413 10412 10412
10611 10611 10611 10610 10609 10607 10605 10603 10602 10601 10599 10596 10595 10593 10589 10586 10585 10584 10581 10576 10571 10568 10564 10561 10558 10555 10551 10547 10541 10535 10530 10525 10521 10517 10512 10507 10502 10499 10495 10492 10488 10486 10483 10479 10476 10473 10470 10467 10465 10462 10460 10458 10456 10453 10452 10450 10448 10446 10444 10442 10440 10438 10436 10434 10432 10430 10428 10426 10423 10421 10419 10418 10417 10415 10414 10414 10413 10412 10412 10411 10410 10410 10410 10410 10410
10602 10602 10602 10600 10599 10597 10595 10594 10592 10589 10586 10584 10583 10581 10578 10576 10574 10573 10570 10566 10561 10557 10553 10549 10546 10542 10539 10534 10530 10525 10519 10515 10511 10507 10503 10499 10494 10490 10486 10482 10479 10477 10475 10473 10470 10467 10464 10462 10459 10457 10455 10453 10451 10449 10447 10446 10443 10441 10440 10437 10435 10433 10432 10430 10428 10427 10425 10423 10421 10419 10417 10415 10414 10413 10412 10411 10410 10410 10409 10409 10408 10408 10408 10408 10408